ATLAS 5 CENTAUR DEB, 43955

Orbit data source: Space-Track

ATLAS 5 CENTAUR DEB, 43955 is space debris in HEO originally from a launch on Wed, 17 Sep 2014 UTC launched from the Air Force Eastern Test Range (AFETR). Debris objects in space refer to the collection of defunct objects orbiting the Earth. Examples of debris include non-operational satellites, rocket bodies, and fragments generated from explosions, collisions, or faulty payload assembly.

Loading next visibility...
Identifier
43955, 2014-055J
Orbit
HEO
Country
Flag of USUS
Related business
Flag of USUnited Launch Alliance/Lockheed Martin (US)
Manufacturer
Unknown
Mission
Spacecraft
Bus & Motor
Unknown
Mass
Unknown
Launch date (UTC)
2014-09-17 (11 years ago)
Launch vehicle
Unknown
Launch site
Air Force Eastern Test Range (AFETR)
Object type
Payload
Rocket body
Debris
Shape & HBR
Unknown shape, 1.1 m
Radar Cross Section
Medium (>0.1 m² and <1 m²)

Expand to show TLE details & history
Last TLE update: 2 months ago

TLE from 2 months ago
0 ATLAS 5 CENTAUR DEB
1 43955U 14055J   25299.11963631 -.00000051  00000-0  00000-0 0  9995
2 43955  20.8335 124.8332 4915984 196.2077 139.6672  1.93263174 50458
Epoch: 2025-10-26T02:52Z
TLE epoch observation values (Epoch: 2025-10-26T02:52:16.577Z)
Latitude
-0.00003°
Longitude
47.01866°
Altitude
32,700.377 km
Speed
2.4 km/s
True Right ascension
08h 19m 18s
True Declination
0° 00' 00"
Sunlit
Object was in daylight at epoch
Visualization orbit readout
Latitude
Unknown
Longitude
Unknown
Altitude
Unknown
Speed
Unknown
Apparent Right ascension
Unknown
Apparent Declination
Unknown
Sunlit
N/A
Visualization observer readout
Local Sidereal Time
08:41:34
Azimuth
Unknown
Elevation
Unknown
Doppler factor
Unknown
Orbital elements
Apogee altitude
34,233.729 km
Perigee altitude
7,464.153 km
Semi-major axis
27,227.078 km
Eccentricity
0.4916
Inclination
20.8335°
RAAN
124.8332°
Arg. of periapsis
196.2077°
True anomaly
163.81259°
Mean anomaly
139.6672°
Eccentric anomaly
152.62048°
Mean motion
0.48311 °/min
Orbital period
745.18 mins
BSTAR
0
Loading maneuver chart data...
Computing Atmospheric mass density...

Documentation

Showing up to 5 results
|